GFSNE_250_spd_000.txt.gz
Wind_Speed
59 57 51 56 61 76 80 82 84 51 52 45 46 55 66 68 68 65 65 66 63 65 65 64 60 54 49 46 45 46 46 45 44 45 41 38 34 32
63 61 58 64 75 78 81 84 73 53 50 55 54 53 61 68 73 72 70 69 68 67 68 68 66 62 55 50 47 46 47 46 47 47 46 42 39 38
64 67 59 66 74 79 82 85 78 69 52 61 62 61 60 63 70 77 76 74 73 70 68 70 70 67 63 57 50 48 47 47 46 47 47 47 43 41
69 68 66 63 85 88 88 90 87 82 60 53 65 71 63 59 64 69 78 78 77 77 73 71 72 73 69 65 60 52 48 46 45 43 44 47 50 48
68 65 63 76 80 90 91 92 95 90 59 49 60 68 68 59 56 64 70 81 80 78 79 76 75 75 73 70 66 63 57 50 48 45 42 39 40 46
70 71 66 76 89 95 95 102 105 77 63 53 53 64 64 61 54 53 65 71 81 82 81 82 79 75 76 73 71 67 66 61 55 51 47 45 43 40
70 64 63 73 102 98 106 107 111 77 63 51 50 56 62 60 60 54 58 65 72 81 81 81 84 79 76 77 74 70 67 63 59 54 50 47 48 46
73 73 72 89 103 107 109 110 117 76 66 56 45 45 55 57 61 58 54 58 65 70 82 86 84 86 82 78 77 75 70 65 61 56 50 50 48 47
66 72 92 104 105 107 114 116 105 84 75 60 46 40 47 56 60 61 57 50 52 64 73 85 84 84 89 82 78 76 74 65 61 55 51 50 51 50
69 84 98 100 105 105 114 119 97 88 80 58 44 42 42 54 58 59 58 56 56 59 66 77 86 84 85 87 81 77 73 70 60 54 49 50 51 47
81 93 99 108 106 113 115 112 98 96 82 62 46 39 42 48 53 54 59 60 61 61 57 67 82 87 82 85 84 79 75 72 63 56 50 51 50 46
113 109 107 106 108 114 116 105 104 95 84 60 49 41 37 38 47 50 56 58 63 64 58 64 74 79 83 80 89 83 78 71 65 57 57 55 50 45
115 113 110 111 113 110 107 102 95 96 78 58 48 40 33 32 37 45 52 55 56 61 65 69 69 74 86 80 82 86 81 74 70 63 61 58 53 49
115 108 112 114 111 112 111 99 95 87 69 55 43 38 32 29 32 37 43 46 51 57 61 71 74 76 81 81 79 90 84 81 77 68 65 63 56 51
111 111 111 113 112 114 105 97 89 75 60 48 38 35 27 25 26 27 28 34 44 45 53 65 70 76 80 82 79 83 91 84 80 75 69 65 59 56
108 106 109 111 112 101 99 91 81 68 53 42 33 31 25 24 23 21 23 30 35 39 48 56 61 72 84 86 87 84 89 85 83 79 71 65 61 56
105 106 109 104 99 99 95 84 73 59 45 37 30 29 26 24 20 18 20 19 25 33 41 44 54 64 80 90 91 86 84 88 84 79 74 67 65 59
101 96 95 100 97 93 83 76 62 50 39 32 28 29 25 23 23 18 15 17 19 30 36 42 53 62 72 90 94 86 84 89 84 81 76 71 70 65
97 100 100 96 90 82 75 63 53 44 34 29 30 30 26 24 23 22 19 19 21 31 37 44 54 61 70 86 89 83 84 89 86 84 78 75 73 66
94 91 90 83 77 67 59 54 42 39 32 29 33 32 29 26 24 21 18 17 22 32 39 50 57 62 71 82 82 79 84 88 87 85 80 77 74 66
85 82 76 66 58 55 49 43 38 35 31 30 34 35 32 27 24 22 21 21 25 36 41 51 60 64 70 78 80 81 83 81 86 87 82 81 79 70
66 62 57 52 49 44 41 37 35 34 31 32 36 39 37 31 26 21 20 24 33 41 51 61 64 68 70 71 77 82 88 70 81 88 87 82 80 76
55 52 52 47 42 40 37 35 33 33 33 33 36 44 42 36 31 26 25 29 36 49 54 64 69 72 76 76 75 83 85 78 66 80 83 87 83 80

GFSNE_250_spd_003.txt.gz
Wind_Speed
49 53 53 58 61 61 57 61 59 60 79 80 83 77 32 37 43 56 66 70 70 69 66 64 66 64 61 57 54 54 55 54 51 46 43 42 37 37
52 61 61 61 62 63 60 67 60 69 81 86 93 85 53 47 52 57 65 72 75 75 73 69 69 69 67 63 58 56 57 57 55 51 48 47 44 40
58 69 67 66 60 66 65 70 66 70 80 86 87 84 73 51 54 54 66 73 79 80 79 77 72 73 72 68 64 58 55 57 58 55 53 52 49 45
68 69 65 68 68 65 67 65 68 72 86 88 87 91 86 58 53 55 54 70 76 83 82 82 78 73 74 74 70 64 59 56 57 60 57 56 55 51
74 72 69 73 69 78 64 68 73 81 90 97 92 97 80 72 55 55 51 52 71 76 84 84 84 80 76 77 77 71 65 58 57 60 62 60 58 56
74 77 71 73 72 65 62 73 86 87 98 101 99 92 83 70 55 50 53 47 52 75 78 84 85 88 83 78 79 78 72 64 60 60 63 62 59 58
78 70 79 79 79 67 63 81 91 99 103 103 95 87 78 72 55 46 46 48 51 66 78 79 88 91 89 84 79 81 78 71 64 60 61 62 60 57
84 79 85 89 83 70 74 90 98 103 109 110 108 100 82 68 51 46 42 47 51 57 71 79 81 90 94 89 83 79 81 77 70 62 57 58 59 55
83 89 90 83 80 80 86 99 106 107 108 115 113 96 83 66 49 45 42 44 50 52 60 72 71 81 91 91 86 81 79 80 77 71 64 58 54 53
86 74 76 81 86 85 96 102 104 107 113 116 108 90 82 66 52 42 40 43 47 48 52 61 68 73 79 90 90 86 80 80 81 77 73 68 60 56
74 74 79 83 91 97 98 98 106 112 116 111 98 85 73 63 49 42 37 42 44 46 44 48 63 70 74 85 92 91 87 80 80 79 77 72 68 63
75 83 90 90 93 97 100 106 116 115 116 101 92 77 71 58 45 38 35 41 41 42 36 51 63 69 76 85 91 92 87 82 78 79 77 73 68 63
79 87 90 95 99 103 106 111 113 112 101 97 84 75 61 48 39 35 33 36 37 37 41 53 58 62 74 74 79 84 89 85 80 76 75 72 67 60
91 94 96 94 94 102 103 103 101 101 93 85 78 65 54 40 31 29 30 32 34 37 44 51 55 62 69 74 75 83 89 90 85 79 74 73 65 60
90 93 97 95 94 98 96 92 94 93 87 77 67 55 44 32 25 25 26 27 31 38 42 47 50 57 66 71 74 77 84 91 89 84 78 71 68 62
91 94 91 88 85 87 93 92 95 89 77 67 59 48 35 28 22 23 24 27 30 32 35 46 50 53 64 69 71 72 77 87 89 87 82 75 70 66
89 83 84 89 96 97 99 91 81 76 68 61 51 39 30 25 21 24 24 24 26 28 34 42 48 52 60 66 69 73 75 85 88 90 82 78 74 70
83 88 94 99 102 100 83 77 72 66 57 48 41 32 25 23 22 25 24 22 20 25 28 33 42 50 57 65 71 72 77 84 88 87 88 81 77 75
91 98 102 104 91 82 76 67 60 55 46 41 31 27 23 24 24 27 26 23 19 19 22 28 35 45 51 64 72 75 73 80 83 81 88 82 80 77
100 104 95 83 79 71 65 58 51 46 41 33 27 25 23 27 28 28 26 22 22 22 22 27 35 42 49 58 72 76 74 79 82 81 88 87 82 80
99 82 78 73 69 62 57 53 47 42 37 30 24 24 24 31 32 30 27 22 22 20 22 26 35 41 46 54 67 78 75 76 81 79 81 91 86 84
78 72 68 64 60 56 53 48 43 38 34 29 24 24 26 34 35 31 29 23 23 20 27 32 38 47 52 54 66 77 80 83 86 80 79 83 88 86
66 62 59 56 52 49 45 41 37 34 31 28 25 26 28 35 39 33 30 24 26 25 34 36 43 50 53 56 70 76 81 87 89 88 85 83 85 87

GFSNE_250_spd_006.txt.gz
Wind_Speed
62 59 49 49 53 52 58 63 67 54 47 41 45 51 61 61 61 62 44 32 55 75 77 75 73 72 69 67 65 60 60 60 57 52 48 45 40 34
59 56 56 58 62 62 60 59 61 58 51 47 52 60 67 65 68 77 51 47 47 68 84 84 80 77 75 73 72 68 63 63 62 59 53 50 46 40
62 58 58 64 70 60 61 61 63 62 52 54 63 66 73 75 77 77 63 64 48 62 78 91 90 85 80 78 77 74 70 64 64 63 59 54 50 47
62 63 69 71 63 63 66 58 64 61 55 55 60 75 77 85 88 72 82 74 54 51 60 87 95 93 87 83 83 79 75 70 66 67 66 61 56 52
70 70 70 70 67 64 65 70 62 58 61 60 67 74 83 88 90 88 95 73 49 50 51 68 89 97 94 88 86 85 80 76 69 68 69 67 62 59
70 71 69 73 74 75 68 62 62 62 64 67 73 79 86 89 91 95 96 79 51 46 47 57 68 91 97 93 89 88 87 81 76 69 70 70 67 63
71 72 76 80 76 72 75 69 70 67 70 74 78 85 92 94 95 102 92 67 53 43 45 50 59 75 95 99 94 89 89 86 80 75 67 70 70 67
82 82 81 78 77 72 76 71 71 73 77 82 90 90 96 97 99 86 78 54 48 45 43 53 58 65 84 96 98 92 87 89 85 79 73 66 69 70
80 80 75 70 70 72 73 72 74 79 85 86 86 89 95 100 90 78 67 55 44 45 42 53 55 65 72 87 93 96 92 89 89 84 77 71 66 69
78 77 73 74 69 72 75 79 82 80 81 88 93 94 97 93 77 69 64 54 46 43 41 52 55 66 62 75 93 98 95 91 90 88 82 74 69 66
68 67 67 68 71 74 76 79 81 88 90 94 98 90 81 76 67 66 61 51 44 41 37 42 51 60 62 70 84 95 99 96 91 91 87 79 71 68
70 70 72 76 75 77 79 80 86 89 91 91 78 74 77 74 63 57 51 48 40 37 30 38 48 55 66 65 78 88 94 95 94 89 88 84 77 67
73 71 67 71 70 75 80 84 87 87 79 77 78 79 76 67 55 50 47 43 37 30 29 39 46 55 64 63 70 82 93 92 92 90 85 85 80 70
73 70 69 73 77 78 79 80 74 76 77 80 83 78 67 57 50 44 41 37 32 26 31 40 42 53 64 64 65 78 87 90 89 89 84 85 85 78
74 74 75 77 78 77 74 74 80 81 85 86 76 64 60 53 44 38 33 33 29 26 32 40 42 51 63 65 65 73 82 88 88 91 91 84 86 84
77 77 78 77 77 77 79 82 84 87 87 70 62 54 47 42 36 31 28 30 27 27 33 37 36 47 57 62 63 67 76 85 90 93 94 91 84 86
79 77 77 79 81 81 84 86 86 82 67 59 52 47 42 35 32 27 27 27 26 25 28 32 36 43 54 59 63 65 72 81 89 93 92 90 87 83
75 76 78 82 85 87 89 84 74 67 59 52 44 39 36 31 26 25 26 27 25 26 27 31 34 42 50 58 64 64 67 76 83 92 93 91 89 83
78 82 86 88 91 88 81 67 63 60 54 45 41 37 32 25 23 25 27 28 25 27 26 29 33 37 46 55 63 68 68 76 82 89 91 90 91 87
86 89 90 91 85 72 66 62 57 52 47 40 37 33 28 26 24 26 29 29 25 28 26 24 29 31 41 52 60 69 74 75 81 88 94 93 90 89
93 92 89 74 65 61 58 56 51 47 42 37 33 30 27 24 25 27 29 28 25 28 27 24 26 29 38 47 56 63 76 75 74 79 85 93 91 89
85 72 64 61 57 53 51 47 43 40 38 35 31 29 26 26 26 30 31 30 27 28 26 24 25 28 32 42 50 59 71 76 70 68 76 84 87 86
62 60 55 51 48 46 43 40 37 34 32 30 28 27 26 27 29 32 34 32 30 29 26 24 25 29 33 40 42 54 65 75 72 68 68 78 82 82

GFSNE_250_spd_009.txt.gz
Wind_Speed
51 50 51 51 54 49 51 56 49 45 47 45 44 44 47 48 46 46 49 48 35 35 30 39 57 76 79 78 75 69 68 64 59 59 56 51 46 42
53 55 56 54 53 54 58 57 50 46 43 49 53 52 50 50 52 50 56 55 53 59 37 39 45 69 84 86 83 78 72 69 65 63 61 56 53 47
59 59 61 58 60 65 60 50 49 51 50 52 55 58 59 51 57 62 60 63 69 65 45 39 47 68 90 93 91 87 80 76 72 67 66 63 58 53
61 64 64 66 61 62 54 54 55 53 49 52 60 61 64 56 59 64 67 73 74 63 55 45 46 65 90 100 97 94 90 82 78 73 71 68 64 58
64 67 62 59 62 60 62 57 59 61 59 53 53 57 58 58 62 68 72 75 69 74 75 64 49 55 71 85 102 100 96 91 84 81 74 74 69 63
69 71 73 77 82 76 65 64 69 66 57 55 51 50 62 67 69 73 66 74 79 86 81 59 51 54 60 72 83 102 101 97 91 87 80 75 74 68
70 73 79 82 78 74 70 66 61 60 58 56 54 63 65 70 73 71 78 88 87 84 69 58 53 52 56 63 74 92 102 101 97 91 85 78 76 73
70 71 72 71 72 73 67 66 67 68 65 64 67 70 72 75 77 83 91 88 80 74 68 66 54 50 52 57 72 79 99 99 98 94 89 83 78 77
69 69 70 72 71 71 71 71 72 64 61 60 66 71 70 80 89 94 92 80 74 78 70 63 53 48 52 55 68 73 86 97 96 94 93 90 84 80
65 69 69 66 67 71 68 66 66 67 65 74 81 74 84 85 85 83 76 74 78 77 74 55 48 48 50 53 62 65 77 94 96 96 96 94 88 83
73 71 71 70 73 76 75 72 68 68 69 71 78 81 83 79 76 73 75 76 76 70 59 43 45 45 43 51 58 65 70 89 98 97 96 96 93 86
71 69 68 81 80 71 69 70 72 74 76 78 77 76 77 79 78 78 79 74 60 58 48 42 44 38 43 50 55 64 67 81 96 97 96 94 94 89
72 77 78 75 74 75 74 73 74 76 73 70 73 73 76 77 76 72 63 60 55 53 42 41 40 35 44 49 54 63 66 76 91 97 95 94 92 88
88 86 77 83 81 76 74 72 68 67 67 71 75 77 77 77 72 59 55 50 46 43 38 36 33 32 43 48 53 60 65 71 85 96 96 93 91 86
86 84 82 81 74 69 69 69 70 73 75 77 79 78 75 65 57 50 46 43 41 34 31 32 30 31 40 46 54 60 66 67 77 90 95 94 90 86
85 84 80 75 72 70 70 76 77 79 81 79 77 71 59 54 47 42 40 36 34 29 28 30 28 29 39 46 51 57 65 66 72 84 95 93 90 86
82 74 74 75 75 77 78 81 82 83 81 75 61 56 53 46 39 37 34 30 31 27 25 28 29 30 36 43 50 55 62 66 71 79 90 94 94 90
78 77 78 80 82 86 86 86 82 78 71 61 55 48 44 42 36 32 30 27 29 27 26 30 31 32 36 40 46 52 61 63 66 76 85 95 95 95
82 84 83 85 87 87 85 77 71 61 57 53 52 46 41 37 31 27 25 23 27 28 27 30 31 31 36 39 47 52 57 60 61 72 83 92 94 96
87 86 89 89 86 77 67 62 59 53 49 49 47 42 37 34 29 26 25 25 29 31 31 30 32 33 32 37 45 50 56 59 60 66 78 86 93 95
89 88 83 72 63 60 57 53 49 45 44 42 41 38 34 32 29 27 25 26 30 34 32 31 31 31 30 34 39 50 55 60 62 66 74 84 90 94
80 66 62 59 56 53 49 46 45 42 40 39 37 33 30 28 26 26 25 27 31 36 31 31 31 27 25 30 36 46 54 61 65 67 73 83 90 95
64 58 56 54 52 49 46 42 39 38 37 36 36 31 27 26 23 23 25 28 32 36 33 30 29 27 27 28 34 43 53 59 66 69 69 79 83 89

GFSNE_250_spd_015.txt.gz
Wind_Speed
41 44 46 47 48 48 47 47 49 47 44 46 48 43 42 48 46 43 46 49 46 45 47 46 44 40 42 44 39 51 64 71 70 67 64 62 59 56
45 43 45 47 49 48 51 54 50 51 50 44 46 47 47 42 43 43 48 47 49 50 52 51 47 47 48 47 50 37 48 64 71 75 71 70 69 64
46 48 50 51 51 53 52 53 46 48 47 41 42 39 38 43 39 40 47 53 57 61 56 54 59 60 57 57 46 49 49 52 68 78 79 79 77 74
53 51 54 58 57 56 54 52 50 55 52 45 43 43 48 46 42 50 48 49 55 61 62 64 64 67 66 63 60 56 54 60 63 67 78 84 85 82
59 58 59 63 59 61 59 61 61 57 53 50 50 53 56 55 52 48 56 58 56 60 64 62 66 70 69 74 72 57 53 52 64 62 73 86 92 89
62 66 68 63 61 65 64 64 62 57 56 56 58 61 66 67 61 65 64 50 54 55 61 64 70 69 70 73 75 71 63 62 65 67 75 80 91 98
67 67 70 64 64 67 66 68 63 61 61 59 61 70 72 70 69 77 65 67 66 62 60 61 68 66 66 73 83 87 79 75 71 68 68 88 89 86
70 71 67 69 67 66 68 68 65 60 61 65 74 82 79 78 78 68 69 70 64 66 61 73 77 75 79 84 89 91 89 79 72 66 68 78 86 86
74 73 70 67 71 70 70 64 61 65 67 72 72 83 86 78 73 69 68 66 64 68 67 70 77 79 84 82 84 84 77 73 68 66 69 73 80 91
75 74 73 73 72 70 65 57 62 79 76 82 88 82 78 77 72 65 65 63 65 67 66 66 72 75 79 80 81 81 76 67 66 65 67 77 88 86
75 74 74 74 73 71 73 72 75 76 85 88 84 80 78 76 75 72 72 72 72 76 80 75 80 81 81 83 81 77 68 60 59 62 68 70 78 80
75 78 76 76 75 75 75 78 81 84 85 83 81 79 79 80 80 79 80 79 79 81 85 78 80 77 73 70 63 55 48 45 46 52 58 64 69 69
79 81 79 76 78 77 78 79 84 83 82 82 82 84 86 85 84 83 82 82 80 78 76 69 63 54 51 53 52 43 40 41 42 46 50 55 61 65
80 79 77 77 77 78 80 83 82 81 84 89 89 87 87 88 87 84 78 73 69 63 59 56 53 48 45 42 43 38 33 38 38 41 43 47 55 60
79 79 78 77 79 80 82 83 84 86 91 92 88 88 88 86 78 71 66 62 58 54 51 48 45 44 40 40 41 34 33 32 34 36 39 45 52 57
80 78 78 77 80 80 82 84 88 91 94 91 88 83 76 69 64 61 58 55 51 49 47 45 41 37 35 35 34 31 29 29 30 34 38 43 49 53
78 76 77 80 81 84 88 91 92 94 91 88 81 73 67 62 57 54 52 50 47 47 46 42 35 33 31 32 31 30 28 28 27 30 35 41 47 52
77 80 82 84 85 87 92 95 98 89 86 77 72 68 64 61 56 52 48 47 45 44 43 39 33 29 29 29 28 28 27 30 28 31 37 41 46 48
81 91 93 91 87 90 92 95 87 82 72 63 59 56 52 51 48 46 44 42 41 42 39 34 30 28 27 26 26 28 28 30 30 30 35 40 43 49
86 88 89 88 89 90 91 88 82 71 61 56 53 49 46 45 42 40 39 40 38 38 34 31 29 26 25 24 24 27 28 29 29 31 34 39 43 51
91 96 92 95 92 90 87 81 73 62 56 53 49 47 45 43 40 39 37 37 35 34 30 28 26 25 25 25 26 25 27 28 27 30 33 39 41 49
92 94 89 94 89 83 79 74 62 57 51 50 49 48 45 42 40 37 36 35 33 30 28 26 23 23 24 27 26 24 24 28 26 25 31 36 42 49
88 100 94 85 81 79 76 64 55 50 48 48 47 46 43 40 37 36 34 33 31 27 26 22 21 20 24 26 24 23 25 25 22 24 29 34 43 48

GFSNE_250_spd_021.txt.gz
Wind_Speed
39 39 37 36 37 38 41 45 44 49 46 46 51 49 47 43 36 31 33 27 27 29 31 34 39 45 47 45 49 51 47 43 46 45 41 44 53 60
44 42 40 44 41 42 48 49 50 50 50 48 53 52 50 46 43 36 34 32 35 34 37 37 34 40 45 46 47 49 52 54 52 51 56 52 50 54
52 44 43 44 43 52 57 56 56 57 55 55 58 56 53 48 46 46 40 36 35 39 43 48 36 34 40 50 50 53 55 58 60 58 60 60 61 58
59 50 49 51 52 56 61 61 63 64 65 62 64 59 52 51 51 48 43 39 47 50 50 48 44 42 48 46 52 58 59 62 64 66 67 64 66 65
48 57 58 61 62 64 67 65 65 66 70 69 69 67 62 58 60 51 44 45 48 50 54 57 55 52 55 58 60 63 65 69 69 73 69 71 71 68
45 56 64 65 67 71 72 70 70 70 71 72 70 69 66 61 58 49 51 56 59 58 54 55 59 66 70 63 58 58 59 60 64 69 76 75 72 73
49 61 66 65 74 74 74 74 71 77 74 71 68 69 70 62 56 52 63 64 60 63 61 63 60 62 65 65 65 64 62 61 62 69 72 75 82 81
59 69 68 62 75 75 76 77 75 75 74 76 71 67 59 61 62 66 67 68 66 69 66 67 67 68 73 74 73 71 70 67 64 65 68 76 82 82
65 61 63 70 73 77 82 77 78 81 79 78 75 70 67 68 72 72 68 69 71 73 73 74 79 80 82 79 79 77 74 72 70 69 68 71 76 83
63 63 68 76 79 85 81 82 78 81 79 75 77 78 79 80 83 81 80 77 77 80 81 78 82 85 83 76 75 76 75 72 71 73 73 74 75 78
56 60 75 82 81 81 81 82 81 81 82 82 82 79 82 87 86 84 82 83 83 84 84 76 73 72 70 68 69 68 69 69 71 74 77 77 80 81
56 74 79 82 82 82 84 84 84 82 82 85 87 89 93 100 92 84 82 81 78 76 76 69 62 57 56 59 58 57 56 57 60 62 67 71 75 78
74 77 82 87 89 85 84 82 83 81 84 88 95 97 100 102 91 86 82 75 72 69 60 57 57 52 48 48 56 55 51 49 49 53 57 60 64 67
77 84 85 85 86 82 83 82 80 82 88 97 98 97 100 98 90 86 79 71 64 58 56 51 51 49 46 44 45 54 50 44 43 47 49 49 54 59
76 78 80 87 84 84 83 78 80 85 92 94 95 98 105 95 85 79 69 60 56 52 50 48 47 46 43 41 42 44 43 43 43 43 45 47 51 51
72 78 84 81 84 84 75 77 83 86 91 93 99 106 99 88 79 69 57 53 53 51 47 46 45 43 40 37 38 40 40 42 39 35 35 41 43 45
81 78 78 82 86 75 75 77 86 91 90 96 100 105 91 82 72 61 56 53 51 49 44 39 38 38 35 35 38 37 40 40 36 30 29 37 36 36
82 76 77 87 79 74 73 80 84 86 90 96 101 107 92 79 67 60 56 53 49 47 43 40 36 32 32 33 32 38 38 36 33 25 28 34 31 31
91 78 87 84 76 71 73 78 86 89 90 97 99 103 89 76 67 60 56 52 49 44 39 37 36 32 33 34 31 24 36 32 24 23 28 30 30 30
92 93 88 76 73 71 71 81 86 90 89 97 102 102 91 77 68 60 56 52 49 45 38 35 34 31 31 34 35 24 28 28 20 22 26 25 25 26
98 85 77 75 73 73 77 86 89 92 90 96 104 97 89 77 69 61 56 51 49 45 39 35 32 30 30 31 31 28 23 21 19 18 18 19 21 23
86 74 76 73 73 77 78 85 85 87 92 97 101 94 91 76 70 61 55 51 48 44 39 35 32 30 30 29 27 24 20 16 14 15 13 15 17 18
83 80 78 75 75 78 83 89 86 87 96 98 98 91 93 75 68 63 57 51 49 43 38 34 30 29 28 26 23 19 17 13 12 11 11 12 13 19

GFSNE_250_spd_024.txt.gz
Wind_Speed
44 44 49 33 34 38 44 43 52 57 59 56 57 54 51 55 49 40 37 37 36 35 36 35 33 30 29 36 45 47 49 49 46 47 43 43 44 55
45 47 48 35 33 42 46 49 52 59 61 59 59 59 58 54 51 48 41 42 38 38 38 38 38 41 41 43 44 46 46 49 53 52 53 52 49 47
48 52 51 49 46 49 55 54 56 64 66 60 64 63 62 61 54 53 50 46 40 38 38 37 38 41 41 43 50 53 49 51 53 54 58 58 59 58
52 58 59 52 45 49 60 53 58 67 65 67 74 67 68 61 55 54 50 44 41 40 40 37 41 45 49 53 55 61 53 56 56 57 61 65 66 63
55 58 61 59 54 56 58 56 63 70 71 71 75 69 72 61 60 57 55 52 51 51 54 53 56 55 58 55 54 54 60 65 58 58 63 65 69 70
57 57 61 53 52 58 63 60 66 72 78 74 75 73 71 61 63 60 61 60 64 64 66 60 58 60 62 61 58 61 62 62 64 71 64 66 73 76
59 61 58 57 46 66 65 62 67 75 78 78 73 74 70 70 70 67 66 74 78 78 75 67 63 64 63 63 66 70 68 67 67 68 66 64 67 73
64 65 63 53 53 67 56 62 68 80 86 78 81 76 76 74 75 77 81 76 79 84 75 65 64 68 70 69 71 72 73 73 74 76 75 72 69 71
68 71 69 60 72 64 61 65 72 82 84 81 83 77 74 78 79 85 84 89 92 84 70 66 67 66 69 72 73 73 76 77 79 80 79 79 77 76
72 73 72 75 63 65 68 69 78 81 80 82 86 86 82 82 86 89 92 97 96 84 71 64 69 66 66 67 65 67 68 69 71 74 76 78 80 81
74 76 76 67 63 63 64 70 73 78 90 89 92 84 83 88 91 93 96 100 92 82 74 66 63 59 59 61 57 56 56 58 59 62 65 70 75 76
75 74 65 60 55 57 67 70 73 83 92 103 95 88 87 89 95 96 99 102 92 79 72 62 58 52 49 56 57 52 49 51 53 52 54 57 62 70
61 58 60 52 56 60 64 72 84 88 95 93 86 85 88 89 101 104 105 105 91 81 69 61 59 56 52 49 57 50 47 45 44 47 50 52 55 57
54 58 55 53 56 60 70 85 87 94 94 87 83 86 87 94 100 108 109 105 91 76 66 60 57 54 52 47 46 49 45 43 43 43 44 47 49 51
56 53 49 55 63 69 86 94 86 94 104 96 84 86 90 98 102 115 108 103 87 71 62 57 55 54 51 45 44 41 43 43 40 40 40 42 46 49
64 53 56 61 65 84 98 93 100 106 106 96 88 87 92 98 104 108 104 100 86 71 58 52 50 50 49 44 41 41 39 41 39 36 37 41 44 45
68 67 74 72 79 86 104 107 108 105 104 95 92 89 90 96 102 107 105 99 85 72 62 55 51 48 44 41 41 37 39 39 39 38 34 35 41 40
74 76 81 80 85 95 108 111 106 105 114 98 89 87 90 95 100 107 108 103 88 74 63 57 52 51 46 39 33 37 39 38 39 33 26 30 37 32
78 83 86 86 94 104 108 108 107 111 102 96 87 85 88 97 101 106 112 101 90 76 64 57 52 48 45 43 37 31 33 31 35 29 25 28 30 24
86 90 84 87 100 108 108 110 111 98 100 86 81 84 88 96 102 106 111 102 95 77 65 57 52 47 42 40 41 35 31 29 29 22 23 23 22 20
95 85 82 93 107 108 107 98 96 95 86 81 86 85 90 98 102 107 103 99 97 80 66 56 52 46 42 38 38 36 28 25 21 19 17 17 18 19
87 84 90 99 94 83 88 92 88 88 81 87 80 83 90 98 100 105 108 96 96 79 67 55 51 45 41 37 37 34 28 20 15 13 13 14 17 19
92 95 96 105 84 88 95 92 86 83 78 79 80 87 91 95 99 104 99 93 92 79 70 56 50 43 40 36 35 31 23 18 10 11 11 13 15 16

GFSNE_250_spd_030.txt.gz
Wind_Speed
31 35 35 37 38 39 41 43 45 45 39 44 38 37 40 46 52 67 69 65 53 50 42 42 48 47 38 34 37 40 42 48 50 52 60 60 58 63
34 37 40 40 40 42 45 46 46 47 44 46 35 41 43 52 55 67 67 61 52 45 44 48 43 48 49 48 44 39 44 47 50 54 57 61 68 64
36 39 43 44 44 47 48 51 49 50 48 42 34 41 51 54 62 70 64 58 58 50 49 51 57 61 61 52 44 43 45 51 51 52 59 62 62 65
40 42 44 46 47 51 52 52 52 51 42 34 39 42 49 57 66 69 62 63 58 57 65 60 67 71 74 66 54 44 42 47 56 56 58 63 68 68
44 48 49 50 50 55 54 53 51 45 38 33 48 47 51 57 69 72 69 70 69 66 67 70 80 85 83 79 63 45 41 46 55 61 62 69 69 68
49 51 53 53 53 57 57 55 48 37 31 39 47 56 59 59 72 72 74 73 70 69 75 82 88 88 91 81 69 52 37 45 53 63 76 77 78 81
54 55 56 57 57 59 61 49 41 33 32 39 47 50 61 69 76 73 72 77 78 78 84 90 86 93 97 90 76 53 41 34 44 57 67 78 84 85
57 57 59 59 62 62 55 37 33 34 34 40 44 50 59 65 73 77 75 77 81 86 94 98 92 98 102 98 87 67 48 40 37 43 57 68 77 88
62 60 62 64 60 59 40 37 35 39 40 44 49 54 60 65 76 78 80 79 84 90 94 96 103 106 101 99 93 76 58 45 39 41 45 55 67 75
62 63 64 61 56 42 33 40 42 44 42 41 54 55 58 67 73 78 81 82 87 91 99 94 103 107 110 104 94 85 66 53 46 41 43 47 52 61
63 62 55 44 35 31 39 44 48 44 41 40 57 59 61 67 76 79 88 87 91 94 96 99 110 114 113 113 103 89 71 57 50 44 38 40 46 51
53 43 26 23 31 35 40 46 44 44 41 47 60 60 62 68 76 81 90 97 94 92 96 100 108 114 121 121 114 99 76 62 52 42 39 36 38 45
42 27 21 28 36 40 39 46 44 49 42 51 62 65 65 72 81 89 93 101 91 92 93 97 112 122 137 117 121 104 85 68 54 43 40 35 31 34
32 28 35 42 31 33 36 39 39 51 53 60 61 67 69 75 83 92 96 98 86 89 90 100 114 120 124 118 113 103 89 73 59 44 39 35 31 29
26 32 39 48 47 46 46 46 46 48 53 59 55 70 72 73 86 90 93 97 94 86 94 104 112 122 129 120 119 104 92 77 63 51 40 36 35 32
25 31 36 39 49 30 40 48 50 50 55 57 62 66 75 78 87 90 92 88 81 89 94 103 108 120 127 129 109 104 95 80 67 56 50 41 34 31
25 36 42 46 48 44 46 43 49 55 59 63 61 68 74 77 82 86 83 75 84 85 94 99 113 121 128 117 112 106 98 83 68 56 51 48 40 33
28 36 36 54 53 48 50 51 50 57 57 62 65 71 69 73 78 77 72 72 79 91 93 107 115 120 120 113 111 108 97 84 71 58 49 43 37 31
44 42 43 49 49 48 50 49 49 51 52 61 66 64 68 76 67 69 70 76 82 90 101 107 114 118 116 134 108 104 96 82 72 61 51 43 36 29
49 51 52 58 56 54 55 54 48 57 52 50 57 65 72 74 75 75 76 76 85 93 102 110 112 120 111 116 115 101 95 84 72 62 54 42 31 28
44 49 59 59 57 48 52 51 50 50 49 58 71 75 76 78 79 74 74 81 92 95 106 104 107 116 122 108 107 98 92 84 71 59 53 41 34 30
53 56 61 66 67 56 56 60 62 62 66 69 75 81 83 83 80 82 80 92 96 95 100 107 112 115 112 113 109 97 91 86 71 57 51 41 31 28
59 70 71 73 68 69 70 69 69 66 67 68 77 79 79 83 89 86 82 84 93 97 101 107 112 108 106 103 100 98 92 84 74 59 48 39 30 27

GFSNE_250_spd_033.txt.gz
Wind_Speed
24 25 26 28 31 34 37 40 42 44 37 15 21 40 47 46 51 52 58 65 68 61 52 50 52 56 57 55 54 51 47 36 38 49 53 59 68 68
30 32 32 34 35 37 37 40 46 47 34 13 19 33 42 42 51 49 57 59 64 66 62 58 58 58 62 64 62 57 58 49 40 45 55 58 64 73
34 36 38 40 40 41 42 44 48 47 32 13 19 32 44 44 49 47 54 62 65 72 61 60 65 64 73 77 74 75 79 55 41 42 53 61 63 68
37 39 40 42 43 46 45 44 47 42 24 10 19 34 40 47 48 48 59 65 70 73 72 69 71 77 81 87 89 87 85 68 43 34 45 59 68 71
40 41 43 45 45 49 51 52 50 33 22 22 20 30 41 47 48 49 61 64 71 72 76 71 73 82 87 90 96 104 98 83 56 35 33 48 65 73
46 46 48 49 50 51 52 54 46 34 27 23 24 28 38 41 42 41 62 67 75 78 73 72 77 82 89 92 102 104 105 98 75 47 33 37 53 71
50 51 53 54 54 54 51 51 41 30 30 32 31 29 35 41 43 47 57 66 73 79 85 79 76 79 86 93 103 104 115 111 89 59 40 34 43 59
55 54 55 55 53 53 49 43 36 27 32 34 34 34 34 40 45 50 60 62 73 79 83 81 73 79 89 94 101 106 114 107 92 69 50 37 35 44
56 56 52 51 48 45 39 30 26 29 36 39 35 36 33 45 50 56 59 65 70 78 88 69 71 84 94 97 107 108 111 119 97 80 56 44 37 38
52 48 47 46 40 28 21 24 32 38 39 43 39 40 40 45 49 58 59 67 75 81 87 72 76 87 95 102 102 109 120 122 108 89 67 50 40 36
45 44 37 35 33 22 15 25 35 33 34 41 37 41 39 47 55 58 60 67 70 81 85 71 78 84 93 101 101 113 122 118 114 99 73 54 42 35
51 48 37 32 32 17 19 26 21 24 26 31 44 44 45 53 53 55 62 71 72 79 88 67 74 82 93 101 101 114 116 124 112 100 82 59 41 35
47 44 39 35 31 22 21 25 34 31 31 34 38 44 53 49 55 56 67 66 68 79 81 67 79 86 94 96 107 112 116 114 108 104 87 64 52 44
52 46 40 39 36 30 22 26 25 27 28 36 40 51 50 49 54 62 62 62 68 74 70 68 77 86 92 98 105 108 114 110 115 115 98 74 56 48
56 52 44 39 37 28 27 25 27 39 39 43 39 43 51 57 60 59 59 58 69 78 76 78 75 84 97 101 105 109 114 111 119 124 103 78 62 51
59 46 38 36 37 29 25 31 34 38 45 46 49 55 60 54 53 54 54 60 68 77 78 88 78 84 95 101 106 116 115 110 116 106 103 78 64 53
58 58 49 36 40 34 35 44 45 45 40 53 48 45 56 51 48 44 57 60 65 71 85 87 84 88 98 96 100 107 112 109 104 104 96 84 62 53
57 53 46 40 35 31 35 33 42 37 54 47 50 54 46 49 53 50 55 60 64 76 84 81 80 88 91 91 97 105 104 99 106 106 93 80 65 52
52 41 42 46 46 29 29 35 50 59 52 62 60 57 52 53 55 53 57 64 70 79 82 78 76 86 91 93 97 99 104 105 105 102 94 81 64 53
45 37 31 41 41 36 38 42 55 62 64 62 59 53 56 57 57 54 60 68 75 81 84 74 81 83 86 91 98 101 102 104 103 99 86 77 64 52
35 42 36 39 47 43 50 55 60 60 59 61 62 60 57 58 57 58 62 70 77 79 77 75 78 82 89 95 99 98 99 97 98 94 89 74 62 51
44 41 33 42 50 57 67 67 55 52 59 64 66 63 60 57 52 57 65 72 76 76 72 72 80 85 87 91 90 99 94 94 96 94 79 71 60 47
43 41 44 74 74 73 59 67 69 71 68 61 60 68 68 62 61 61 66 67 70 69 76 79 81 83 86 88 96 88 93 95 99 96 77 71 61 47

GFSNE_250_spd_036.txt.gz
Wind_Speed
21 23 24 25 27 29 30 34 36 39 39 19 14 18 20 27 33 38 43 46 52 60 66 70 52 57 66 68 72 78 78 73 67 63 41 39 57 68
25 27 27 28 29 31 33 36 39 40 41 19 15 16 19 25 28 38 45 46 53 59 63 71 48 57 66 66 71 79 88 86 82 80 54 33 42 62
30 31 33 34 35 36 37 38 41 42 39 25 17 19 23 22 26 38 42 48 54 56 62 63 52 58 63 74 76 84 87 91 86 84 71 41 32 48
33 35 38 39 39 41 39 41 42 42 38 25 24 25 26 23 25 31 38 45 53 54 59 65 65 63 63 73 76 84 86 87 85 94 93 55 34 35
38 40 43 43 44 47 47 45 46 44 38 22 20 23 27 30 24 30 43 48 47 51 56 62 65 64 63 71 79 85 90 89 92 93 99 90 43 31
46 48 50 51 53 54 54 52 52 42 33 18 19 26 27 32 31 31 36 43 50 56 53 60 66 56 66 69 83 91 96 96 100 99 100 90 71 36
52 54 57 58 58 57 54 53 42 32 16 18 22 27 28 29 31 33 35 38 50 54 52 55 62 66 59 71 81 87 94 93 93 95 100 97 79 51
58 58 55 53 50 45 44 36 29 14 16 20 27 31 31 26 27 30 35 39 45 54 57 56 62 63 59 73 85 89 92 89 93 97 102 103 85 58
50 49 48 45 40 39 36 29 20 12 17 17 20 21 25 31 30 31 38 42 50 54 53 55 58 63 66 78 82 90 90 94 99 101 101 107 85 66
49 46 45 43 43 40 35 23 15 18 13 17 19 23 25 24 29 33 37 42 54 51 51 55 62 68 73 78 86 88 89 95 100 103 105 106 90 69
41 43 43 45 48 39 35 24 18 19 17 19 24 26 26 29 32 32 39 47 48 48 52 55 62 67 77 81 86 89 88 93 97 104 107 103 105 76
41 42 43 47 51 43 34 30 24 20 24 21 19 23 28 36 32 35 42 49 49 48 50 55 62 65 75 83 83 90 85 91 97 97 100 102 107 94
46 47 44 45 44 46 41 31 30 23 19 17 24 29 32 36 32 36 46 46 48 46 51 54 58 63 72 80 82 89 84 92 95 97 98 102 108 97
49 48 44 43 41 45 42 39 35 25 23 29 33 38 39 37 31 39 49 54 48 50 52 55 58 63 70 77 82 90 87 92 92 97 97 104 106 95
54 54 48 47 38 39 46 38 36 29 28 31 35 40 45 36 40 46 49 56 54 60 56 56 61 65 70 76 84 90 87 90 92 96 96 103 102 102
55 57 57 56 51 42 41 43 38 30 25 33 32 35 34 39 49 49 58 61 66 62 58 61 63 65 68 79 84 83 84 84 90 92 98 94 100 102
60 61 58 55 56 55 43 43 40 38 27 27 32 25 31 44 60 60 66 71 63 60 59 64 65 66 69 78 85 83 81 82 88 88 93 93 98 104
63 65 60 51 50 50 46 42 33 36 28 33 35 35 44 49 57 70 70 69 60 59 61 65 66 67 72 79 83 77 78 81 84 89 91 90 95 101
61 64 58 51 48 42 34 34 41 33 36 35 36 42 48 52 71 68 63 65 62 61 62 62 65 68 71 80 74 77 81 81 80 88 88 86 91 93
68 63 54 46 42 40 36 40 43 43 45 39 44 52 49 75 64 62 62 60 57 59 62 70 65 67 75 76 74 73 76 77 79 87 85 85 89 93
69 49 45 46 40 43 44 42 44 48 50 55 52 65 72 70 62 57 61 60 64 64 67 64 64 69 69 72 72 71 76 79 80 83 83 85 88 93
62 56 55 57 50 48 51 42 34 42 52 51 67 75 76 68 66 70 62 60 62 65 61 59 64 66 67 70 68 72 76 80 81 81 79 82 84 86
61 61 63 66 58 49 45 49 42 46 58 65 62 58 65 68 56 60 62 62 63 61 63 63 61 65 67 70 68 73 77 79 81 82 79 80 80 88

GFSNE_250_spd_042.txt.gz
Wind_Speed
21 24 26 29 33 34 36 39 39 38 42 41 38 34 30 25 29 27 20 22 20 19 30 31 35 37 41 41 44 47 49 51 57 63 66 75 86 88
24 24 27 32 35 40 43 45 45 44 44 46 40 34 29 24 26 25 26 24 24 19 21 29 31 34 40 45 47 47 50 55 60 66 69 77 84 90
28 28 32 36 40 43 46 48 47 43 40 31 33 31 27 23 23 26 29 26 24 13 20 25 29 34 36 44 48 50 51 56 61 65 71 76 84 87
33 34 37 42 46 49 47 37 36 33 30 37 34 25 22 18 21 22 26 26 27 17 22 25 30 37 39 41 48 54 56 55 62 66 70 76 86 87
35 38 42 47 46 37 33 32 31 27 25 33 33 23 7 5 11 19 23 26 24 23 21 25 31 39 43 46 51 56 60 62 62 66 70 74 81 87
37 41 45 41 36 34 36 34 30 26 25 30 25 17 13 13 14 17 20 21 23 26 23 26 31 40 43 48 54 58 61 66 66 67 71 74 79 84
39 43 42 31 29 32 37 35 31 28 24 25 16 14 20 22 21 17 20 20 24 27 29 25 34 41 47 52 58 59 63 68 71 71 71 74 77 83
40 42 30 31 29 30 32 33 35 35 27 20 14 19 22 27 29 24 24 25 29 27 32 27 33 40 46 56 58 64 66 69 73 74 74 77 77 81
43 34 24 25 26 30 29 33 33 32 26 25 23 21 25 31 31 28 27 30 30 28 23 28 35 42 49 54 60 63 66 72 74 75 75 76 79 82
36 29 27 27 27 30 31 37 37 38 31 22 26 28 36 31 34 33 33 33 32 31 30 33 38 44 51 58 65 68 69 73 78 75 76 75 80 81
32 28 25 26 26 31 37 41 42 44 44 40 31 23 30 33 36 32 35 30 34 35 40 39 37 46 60 60 63 69 70 73 75 76 74 76 78 81
32 32 31 30 31 32 35 37 43 48 46 44 42 24 24 30 39 38 32 32 36 43 47 42 42 51 62 63 70 73 70 72 74 74 75 77 77 78
34 31 29 31 33 33 37 42 46 50 49 40 38 37 30 32 35 35 34 33 38 40 39 38 46 58 59 61 74 75 70 78 78 75 77 79 78 77
33 32 34 35 36 37 41 46 49 50 51 40 38 40 35 28 29 37 36 38 37 36 35 44 57 60 69 75 72 76 80 80 77 74 78 80 78 77
33 35 36 39 40 45 49 50 52 52 52 43 40 36 28 25 28 33 33 35 37 33 38 43 43 57 66 65 80 75 81 80 77 71 78 79 78 77
34 37 39 39 43 44 47 51 53 53 49 40 35 35 28 32 37 38 38 36 31 34 29 48 68 71 73 76 74 77 81 81 76 76 78 79 79 74
38 41 42 42 43 45 47 50 50 49 50 42 31 29 31 34 35 40 46 42 37 33 27 40 54 52 69 83 72 73 73 76 68 73 78 76 75 73
43 44 45 45 45 48 49 49 49 53 52 50 45 41 40 43 40 37 43 45 41 42 38 39 55 64 75 78 78 81 72 71 68 71 70 72 72 72
46 46 48 46 46 48 48 48 48 51 51 55 56 55 53 47 40 40 34 31 34 37 45 57 62 58 63 74 79 76 76 67 67 70 70 67 70 74
48 49 49 48 48 50 51 52 54 53 52 54 59 59 57 51 43 40 21 31 37 47 62 62 74 72 74 74 73 67 69 71 72 72 74 76 71 74
52 52 54 54 54 57 60 62 62 64 60 60 60 56 53 48 46 38 29 41 47 53 68 54 60 71 84 79 73 77 80 75 77 79 76 77 76 73
58 59 59 60 62 66 69 68 67 68 68 67 65 61 53 46 39 38 29 21 51 62 68 71 65 72 73 71 70 67 72 75 74 78 76 80 78 74
63 65 67 69 71 74 73 72 71 70 71 71 61 64 57 48 43 44 36 41 57 59 56 60 67 71 75 75 70 69 71 77 75 76 76 76 75 75

GFSNE_250_spd_045.txt.gz
Wind_Speed
23 26 26 28 32 38 42 46 45 41 37 34 30 24 25 26 23 22 19 22 23 22 13 15 22 26 36 39 45 47 47 50 55 60 63 69 71 75
26 31 32 33 38 42 46 44 41 38 36 32 26 30 33 26 19 19 17 21 22 22 16 12 20 30 33 38 43 45 50 51 55 58 64 71 76 75
29 34 34 36 42 48 43 40 39 39 34 30 29 33 34 26 19 14 15 16 17 20 16 13 18 25 28 37 41 45 48 54 60 60 65 68 73 78
31 33 34 37 43 42 39 35 40 40 35 33 32 33 31 16 17 12 5 11 12 15 13 16 15 18 26 31 35 42 50 53 59 63 68 71 75 76
33 33 35 40 44 36 34 31 36 35 32 32 30 33 28 10 11 13 12 13 14 16 15 12 14 18 23 26 33 42 52 57 59 64 68 72 78 82
32 32 34 40 38 31 30 32 32 32 33 27 24 27 24 19 17 17 16 16 15 14 16 15 18 16 26 30 42 50 57 63 63 66 71 75 76 81
31 31 35 37 32 30 32 23 28 32 34 32 27 22 22 22 26 25 20 21 19 19 15 17 18 21 28 35 46 54 62 68 69 73 79 80 75 75
30 29 34 30 28 27 26 28 29 32 37 39 32 26 27 26 26 30 29 26 31 23 27 23 23 29 35 37 47 63 63 68 74 75 78 82 77 77
29 32 34 29 27 24 23 23 23 28 34 41 43 36 39 31 29 33 34 31 31 30 24 29 30 38 32 38 48 58 64 68 73 78 76 78 83 80
30 33 32 27 27 26 26 23 23 25 31 33 39 41 33 31 29 28 32 32 33 33 30 27 34 35 33 37 47 57 61 65 74 74 74 82 82 84
35 36 34 28 28 31 27 25 29 31 35 37 40 41 37 33 36 35 34 31 35 39 38 27 32 35 39 37 47 49 56 67 67 70 71 79 82 83
36 37 36 30 32 32 29 28 32 33 35 39 42 42 35 33 34 21 24 24 31 39 42 34 43 41 40 45 51 52 54 62 68 74 80 79 82 82
39 40 39 30 32 33 34 32 32 33 36 38 41 44 42 38 37 25 24 22 20 21 28 33 40 39 46 42 35 43 58 65 71 71 74 76 79 80
43 43 39 32 32 34 34 33 34 36 38 39 39 41 40 38 39 40 40 31 28 30 31 29 35 44 49 46 40 49 59 69 67 70 75 83 81 73
48 46 37 33 33 36 36 36 35 36 38 39 39 41 39 38 37 37 44 50 43 37 29 34 37 41 39 40 43 46 68 69 66 74 74 83 73 77
51 46 39 35 37 40 38 38 38 39 39 38 40 40 42 40 39 37 44 52 52 49 50 43 35 37 38 40 41 47 55 62 68 66 73 79 74 71
47 43 40 38 42 42 41 41 41 42 41 39 40 43 46 47 47 45 45 44 50 49 48 45 34 30 35 45 48 54 57 62 66 72 76 76 67 64
42 40 40 42 42 43 42 43 45 44 42 43 46 50 54 60 57 58 52 46 42 49 44 39 27 30 35 47 42 52 65 74 76 69 70 74 68 70
37 40 43 44 45 45 45 47 48 48 48 48 51 55 58 61 59 59 62 57 51 43 45 31 22 26 59 54 59 61 71 66 76 80 80 72 70 73
43 44 47 48 48 49 50 52 52 52 54 54 57 60 65 64 62 59 63 62 55 47 44 42 40 45 34 53 59 65 74 81 73 79 77 70 73 73
47 49 50 50 52 53 54 56 57 57 58 61 62 66 69 71 67 62 62 64 61 55 58 46 43 34 43 48 53 60 69 74 75 70 70 73 73 69
52 53 53 56 57 58 59 60 61 62 64 69 71 72 72 74 70 70 63 66 64 60 64 59 54 50 50 50 51 59 61 65 66 67 69 72 73 71
58 57 59 60 62 63 64 66 67 70 71 75 81 78 79 80 74 73 65 67 62 66 66 67 64 67 62 62 71 74 78 71 72 72 73 74 76 78

GFSNE_250_spd_048.txt.gz
Wind_Speed
20 26 31 34 35 39 43 39 33 36 37 34 27 22 26 29 19 14 12 15 14 9 7 3 7 16 14 20 27 35 37 39 46 54 62 65 71 75
22 27 33 33 36 40 40 36 33 37 34 34 32 29 26 27 19 10 6 5 3 7 7 5 2 6 11 15 21 31 40 47 47 53 60 62 70 75
23 28 33 33 36 40 37 36 38 35 33 36 31 32 29 24 21 20 7 4 2 4 4 5 5 9 8 10 16 29 42 46 53 55 60 65 70 75
26 31 32 33 35 40 33 34 31 28 31 28 30 31 26 19 15 17 11 6 6 6 5 9 11 6 11 14 16 22 39 49 54 55 63 67 69 72
27 29 31 31 32 36 31 28 30 32 33 33 34 34 32 26 17 14 14 11 11 13 11 10 9 10 14 21 22 25 35 42 50 56 64 67 70 70
25 28 30 29 32 34 27 26 31 30 29 32 33 34 30 33 25 23 20 19 17 19 17 13 11 10 16 23 27 31 35 43 50 60 62 65 69 70
28 28 29 27 32 33 24 24 21 24 25 26 29 32 31 26 28 26 25 27 27 21 25 17 17 16 21 24 24 27 33 44 53 53 51 57 65 70
26 27 25 27 31 32 22 20 20 22 29 29 29 32 36 32 25 24 28 29 30 28 21 26 19 22 24 26 29 31 38 47 48 49 51 55 60 67
26 24 24 27 32 32 26 23 22 21 27 30 32 31 33 32 31 28 27 27 31 29 26 30 21 24 25 29 29 33 36 41 48 43 43 49 59 67
26 26 25 26 29 32 28 25 23 22 26 24 27 27 29 31 27 27 25 20 27 30 28 29 29 31 31 35 42 40 38 43 46 40 42 50 55 64
29 30 30 28 29 31 30 29 24 26 27 27 26 24 25 27 23 19 23 21 19 26 35 29 29 28 30 38 46 41 44 48 40 44 53 53 60 66
33 34 33 33 32 33 31 29 31 27 26 27 27 27 25 26 27 26 19 13 19 24 29 31 35 33 35 39 40 29 38 47 46 44 51 42 59 67
37 38 38 38 37 36 33 29 30 26 26 27 30 28 27 29 36 39 39 31 22 33 38 31 34 39 42 39 48 47 38 47 44 44 52 51 59 61
42 40 41 41 40 40 38 34 30 28 29 29 30 29 26 28 30 35 41 48 54 52 52 53 47 38 37 39 40 41 40 46 47 51 52 56 58 67
44 43 44 43 43 44 44 37 33 31 33 31 31 30 28 31 33 36 39 42 47 52 56 59 58 57 51 45 33 33 36 46 44 50 52 45 58 61
44 46 47 46 48 47 45 39 36 36 37 35 34 33 30 33 38 40 41 44 47 51 55 56 57 59 58 45 28 24 31 26 40 43 52 61 66 64
45 49 52 52 50 50 45 40 39 39 40 39 39 38 36 37 43 46 49 49 52 56 61 64 58 53 52 49 25 30 33 38 46 62 56 63 63 65
50 53 54 56 55 51 43 41 42 42 42 43 43 42 42 43 44 49 51 55 58 59 63 66 65 61 55 46 43 39 39 50 60 65 65 63 63 65
56 59 60 57 51 47 45 44 44 45 46 46 47 46 47 49 50 53 54 57 64 64 67 69 67 70 54 50 48 48 41 50 48 46 59 62 62 64
57 53 50 47 46 45 46 48 48 48 49 50 50 51 52 52 57 60 61 62 69 70 72 72 69 68 66 57 56 52 54 59 56 57 59 56 61 68
43 43 43 43 43 45 48 50 50 51 53 54 54 55 57 59 63 66 67 68 73 75 76 73 63 64 69 64 62 63 59 60 62 64 65 66 68 69
49 49 49 49 50 51 51 53 55 56 57 58 58 62 64 65 69 73 74 75 76 79 79 79 76 63 64 71 68 67 76 67 68 70 71 71 73 76
57 56 57 57 56 56 57 59 60 60 61 63 67 70 70 74 76 80 80 81 81 80 80 75 71 65 60 62 65 70 71 73 72 72 72 77 79 79